Content
SEND FEEDBACK

Daily
Averages
Monthly
Summary
United States of America

MIDWAY, KENTUCKY


Home > North America > United States > Kentucky
Elevation: 80 feet     Latitude: 38 07N     Longitude: 084 42W

WEATHER
 
SELECT A DAY
Number of Records: 193,616;   Date Range: 7/1/96 - 9/20/14
 
SHARE

PRINT THIS DATA

[ ← Previous Day ]
WEATHER ALMANAC - JANUARY 31, 2013
[ Next Day → ]
[ °C ]   °F
Weather ElementAverageHighLow
Temperature28.2 °F33.1 °F (3:53 pm)21.2 °F (11:34 pm)
Dewpoint21.4 °F28.9 °F (9:53 pm)17.6 °F (7:42 am)
Humidity76.3 %100 % (9:40 pm)56 % (3:53 pm)
Barometer29.94 in30.04 in (10:53 pm)29.73 in (1:30 am)
Wind Speed11.1 mph21.9 mph (2:53 am)
Wind Gust34.5 mph (10:37 pm)
Weather ElementAverage
Visibility4.9 mi
Wind DirectionW (267 °)

Weather ElementTotal
Precipitation0.18 in
Heating Degree Days37.9 (Base 65)
Averaged from 56 records on January 31, 2013
WEATHER CONDITIONS BREAKOUT
WIND DIRECTION BREAKOUT
WEATHER BY HOUR - JANUARY 31, 2013
[ °C ]   °F
Local TimeTemperatureDewpointHumidityBarometerVisibilityWind DirectionWind SpeedGust SpeedPrecipitationEventsConditions
1:30 AM30.2 °F24.8 °F80 %29.73 in8.0 miWest (260°)16.1 mph21.9 mph0.00 inOvercast
1:42 AM30.2 °F26.6 °F86 %29.74 in2.5 miWest (270°)15.0 mph24.2 mph0.00 inSnowLight Snow
1:53 AM30.0 °F26.1 °F85 %29.75 in3.0 miWest (280°)13.8 mph26.5 mph0.00 inSnowLight Snow
2:53 AM30.0 °F19.9 °F66 %29.80 in10.0 miWest (260°)21.9 mph31.1 mph0.00 inOvercast
3:53 AM28.9 °F18.0 °F64 %29.81 in10.0 miWest (270°)15.0 mph28.8 mphOvercast
4:53 AM28.9 °F19.0 °F67 %29.82 in10.0 miWest (270°)13.8 mph19.6 mphOvercast
5:53 AM28.9 °F18.0 °F64 %29.84 in10.0 miWest (260°)12.7 mph19.6 mphOvercast
6:53 AM28.9 °F19.0 °F67 %29.87 in10.0 miWSW (250°)12.7 mph20.7 mphOvercast
7:42 AM28.4 °F17.6 °F64 %29.89 in10.0 miWSW (250°)12.7 mph21.9 mphOvercast
7:53 AM28.0 °F19.0 °F69 %29.91 in10.0 miWest (260°)16.1 mph26.5 mphOvercast
8:13 AM26.6 °F19.4 °F74 %29.91 in1.8 miWest (280°)9.2 mph25.3 mph0.00 inSnowLight Snow
8:22 AM26.6 °F19.4 °F74 %29.92 in2.5 miWest (270°)11.5 mph25.3 mph0.00 inSnowLight Snow
8:24 AM26.6 °F19.4 °F74 %29.92 in3.0 miWest (270°)10.4 mph25.3 mph0.00 inSnowLight Snow
8:34 AM26.6 °F19.4 °F74 %29.92 in6.0 miWest (270°)8.1 mph17.3 mph0.00 inSnowLight Snow
8:53 AM27.0 °F19.0 °F72 %29.95 in5.0 miVariable6.9 mph16.1 mph0.00 inSnowLight Snow
8:59 AM26.6 °F19.4 °F74 %29.94 in2.5 miWNW (300°)15.0 mph19.6 mph0.00 inSnowLight Snow
9:03 AM26.6 °F19.4 °F74 %29.95 in1.0 miWNW (300°)10.4 mph19.6 mph0.00 inSnowLight Snow
9:09 AM24.8 °F19.4 °F80 %29.95 in0.8 miWNW (300°)11.5 mph17.3 mph0.00 inSnowLight Snow
9:19 AM24.8 °F19.4 °F80 %29.95 in1.0 miWNW (300°)5.8 mph0.00 inSnowLight Snow
9:26 AM24.8 °F19.4 °F80 %29.95 in2.0 miWest (280°)9.2 mph0.00 inSnowLight Snow
9:35 AM26.6 °F19.4 °F74 %29.96 in5.0 miWest (280°)6.9 mph0.00 inSnowLight Snow
9:48 AM26.6 °F19.4 °F74 %29.97 in6.0 miWest (280°)8.1 mph0.00 inSnowLight Snow
9:53 AM27.0 °F19.9 °F75 %29.99 in8.0 miWest (280°)10.4 mph0.00 inSnowLight Snow
10:48 AM26.6 °F21.2 °F80 %29.98 in3.0 miWest (280°)6.9 mph0.00 inSnowLight Snow
10:53 AM27.0 °F21.0 °F78 %30.01 in3.0 miWest (280°)6.9 mph0.00 inSnowLight Snow
11:03 AM26.6 °F21.2 °F80 %29.99 in1.5 miWNW (290°)8.1 mph0.00 inSnowLight Snow
11:05 AM26.6 °F21.2 °F80 %29.99 in0.8 miWNW (290°)8.1 mph0.00 inSnowLight Snow
11:17 AM26.6 °F21.2 °F80 %29.98 in1.2 miWest (260°)10.4 mph19.6 mph0.00 inSnowLight Snow
11:19 AM26.6 °F21.2 °F80 %29.99 in3.0 miWest (260°)11.5 mph19.6 mph0.00 inSnowLight Snow
11:31 AM28.4 °F21.2 °F74 %29.98 in10.0 miWSW (250°)8.1 mph0.00 inOvercast
11:53 AM28.9 °F21.0 °F72 %30.00 in10.0 miWSW (250°)9.2 mph19.6 mph0.00 inOvercast
12:15 PM28.4 °F19.4 °F69 %29.99 in6.0 miWest (270°)15.0 mph24.2 mph0.00 inSnowLight Snow
12:53 PM28.9 °F23.0 °F78 %30.00 in8.0 miWSW (240°)11.5 mph17.3 mph0.00 inOvercast
1:14 PM28.4 °F24.8 °F86 %29.97 in2.0 miWSW (240°)9.2 mph20.7 mph0.00 inSnowLight Snow
1:20 PM30.2 °F23.0 °F75 %29.96 in4.0 miSW (230°)15.0 mph19.6 mph0.00 inSnowLight Snow
1:53 PM30.9 °F21.9 °F69 %29.97 in10.0 miWest (260°)10.4 mph21.9 mph0.00 inMostly Cloudy
2:53 PM32.0 °F19.0 °F59 %29.97 in10.0 miWest (280°)12.7 mph26.5 mphMostly Cloudy
3:53 PM33.1 °F19.0 °F56 %29.96 in10.0 miWest (260°)9.2 mph23.0 mphOvercast
4:53 PM33.1 °F19.0 °F56 %29.96 in10.0 miWSW (250°)8.1 mph17.3 mphOvercast
5:53 PM33.1 °F19.9 °F59 %29.96 in10.0 miWSW (250°)11.5 mph17.3 mphOvercast
6:53 PM33.1 °F19.9 °F59 %29.97 in10.0 miWest (260°)6.9 mphOvercast
7:53 PM33.1 °F21.0 °F61 %29.96 in10.0 miWest (260°)9.2 mph18.4 mphOvercast
8:38 PM30.2 °F24.8 °F80 %29.93 in2.0 miWSW (240°)15.0 mph24.2 mph0.00 inSnowLight Snow
8:45 PM30.2 °F26.6 °F86 %29.93 in1.5 miWest (260°)10.4 mph24.2 mph0.00 inSnowLight Snow
8:50 PM30.2 °F26.6 °F86 %29.93 in3.0 miWest (260°)8.1 mph0.00 inSnowLight Snow
8:53 PM30.9 °F26.1 °F82 %29.95 in4.0 miWest (260°)8.1 mph16.1 mph0.00 inSnowLight Snow
9:10 PM30.2 °F26.6 °F86 %29.92 in1.8 miWest (260°)5.8 mph0.00 inSnowLight Snow
9:22 PM30.2 °F28.4 °F93 %29.93 in1.0 miWest (280°)5.8 mph0.01 inSnowLight Snow
9:29 PM30.2 °F28.4 °F93 %29.92 in0.5 miWest (270°)6.9 mph0.02 inFog-SnowSnow
9:40 PM28.4 °F28.4 °F100 %29.93 in0.8 miWest (270°)4.6 mph0.03 inSnowLight Snow
9:53 PM28.9 °F28.9 °F100 %29.96 in0.5 miWest (280°)5.8 mph0.04 inFog-SnowSnow
10:33 PM24.8 °F21.2 °F86 %29.99 in0.5 miNW (320°)19.6 mph28.8 mph0.02 inFog-SnowSnow
10:37 PM23.0 °F19.4 °F86 %30.00 in1.0 miNW (310°)18.4 mph34.5 mph0.02 inSnowLight Snow
10:46 PM23.0 °F19.4 °F86 %30.00 in1.5 miNW (310°)19.6 mph29.9 mph0.02 inSnowLight Snow
10:53 PM23.0 °F18.0 °F81 %30.04 in1.8 miNW (320°)20.7 mph31.1 mph0.02 inSnowLight Snow
11:34 PM21.2 °F17.6 °F86 %30.04 in3.0 miNW (310°)12.7 mph20.7 mph0.00 inSnowLight Snow
Hourly data recorded from KFFT, located miles away from Midway, Kentucky







STORIES FROM OUR PARTNERS